Location: Suburban Lights Observatory
(43.1572°N, 89.2764°W)
Time: 07:09:49
(UTC-05:00)

Daily predictions for brighter satellites

Satellite Brightness Start Highest point End
(mag) Time Altitude Azimuth Time Altitude Azimuth Time Altitude Azimuth
Meteor 1-22 Rocket 4.4 19:35:51 10° S 19:41:44 83° E 19:47:49 10° NNE
SeaSat 1 2.6 19:39:18 10° SE 19:44:07 57° ENE 19:48:58 10° NNW
Cosmos 1048 Rocket 4.4 19:39:22 10° N 19:44:14 41° ENE 19:49:03 10° SE
Cosmos 1470 4.4 19:43:44 10° SE 19:46:15 16° E 19:48:46 10° NE
Cosmos-2242 4.3 19:45:49 10° SE 19:48:55 20° E 19:52:01 10° NE
GP-B 4.2 19:49:02 10° SE 19:52:38 25° ENE 19:56:15 10° NNE
Cosmos 1821 Rocket 4.5 19:46:45 10° SSW 19:53:07 70° W 19:59:27 10° N
HJ-1C 3.4 19:51:38 10° SSE 19:55:01 72° ENE 19:58:27 10° N
Cosmos 2297 3.9 19:51:07 10° S 19:56:37 51° ESE 20:02:10 10° NE
BREEZE-M DEB (TANK) 3.0 19:54:47 10° SW 19:57:28 59° SE 20:04:07 10° ENE
SJ-6B 3.1 19:54:15 10° S 19:57:57 68° WSW 20:01:42 10° NNW
Cosmos 1340 Rocket 4.1 19:56:03 10° NNE 19:59:13 22° ENE 20:02:21 10° ESE
USA 186 2.7 19:58:06 12° ESE 19:59:14 16° ENE 20:00:42 10° NNE
H-2A R/B 2.9 19:56:12 10° SSE 20:00:02 59° ENE 20:03:56 10° N
Resurs 01 Rocket 1.6 19:57:52 10° SSE 20:02:13 63° ENE 20:06:37 10° N
CZ-4B DEB 4.5 20:01:12 12° ESE 20:02:48 16° ENE 20:04:48 10° NNE
Cosmos 2082 Rocket 2.2 20:01:57 10° NNW 20:07:39 67° ENE 20:13:16 10° SE
Timation 1 Rocket 4.3 20:01:46 10° SSW 20:07:46 77° ESE 20:13:47 10° NNE
FengYun 1-2 T 4.4 20:04:19 10° SSE 20:09:54 84° WSW 20:15:34 10° NNW
ISS -3.2 20:07:05 10° SSW 20:10:06 36° SE 20:12:45 13° ENE
Cosmos 1605 Rocket 4.1 20:05:01 10° S 20:11:18 90° ENE 20:17:43 10° N
Meteor 1-29 4.2 20:10:56 10° NE 20:13:39 21° E 20:16:22 10° SSE
Cosmos 2100 Rocket 4.4 20:09:29 10° SSE 20:15:22 43° E 20:21:19 10° NNE
SAR-Lupe-4 3.9 20:16:30 10° SE 20:19:56 45° ENE 20:23:23 10° N
CZ-3B DEB 3.5 20:11:44 10° WSW 20:22:10 52° NW 20:27:00 10° NE
COSMOS 2487 2.4 20:19:13 10° NNW 20:22:49 88° ENE 20:26:23 10° SSE
Cosmos 1271 Rocket 3.1 20:21:27 10° SSE 20:25:17 45° E 20:29:09 10° NNE
Cosmos 2251 Rocket 4.4 20:21:00 10° N 20:25:44 31° ENE 20:28:42 19° ESE
Cosmos 1758 3.5 20:22:38 10° SSW 20:26:36 74° W 20:30:37 10° N
Cosmos 1818 4.3 20:22:52 10° NW 20:28:09 53° WSW 20:33:24 10° SSE
Cosmos 1269 Rocket 4.1 20:23:07 10° NNW 20:28:26 82° WSW 20:33:42 10° SSE
Cosmos 372 Rocket 3.9 20:25:31 10° SSW 20:30:37 80° ESE 20:35:49 10° NNE
Cosmos 1674 2.5 20:28:02 10° N 20:31:50 78° E 20:35:38 10° S
Cosmos 1953 2.7 20:28:55 10° SSW 20:32:57 69° W 20:37:00 10° N
Cosmos 158 Rocket 4.0 20:27:57 10° NNW 20:33:07 88° WSW 20:38:24 10° SSE
Lacrosse 5 3.4 20:30:35 10° W 20:35:12 34° NNW 20:39:50 10° NE
USA 215 3.9 20:30:43 10° ENE 20:36:19 30° SE 20:41:52 10° S
Cosmos 1408 Rocket 3.5 20:32:18 10° N 20:36:49 89° E 20:41:17 10° S
Resurs 1-3 4.0 20:33:19 10° S 20:37:39 64° WSW 20:42:02 10° NNW
SAR-Lupe-1 4.0 20:36:02 17° SSE 20:38:39 67° ENE 20:42:13 10° N
Cosmos 1802 Rocket 4.1 20:33:14 10° SSE 20:39:06 50° E 20:45:03 10° NNE
Cosmos 2151 4.1 20:38:05 10° NNE 20:41:37 25° ENE 20:42:01 24° E
Meteor 1-4 Rocket 3.9 20:40:25 10° SSW 20:43:42 40° WNW 20:47:01 10° N
Helios 1B rocket 2.3 20:39:34 10° NNE 20:43:42 67° ESE 20:47:47 10° S
Cosmos 1939 Rocket 3.3 20:42:57 27° SE 20:44:44 45° ENE 20:48:42 10° N
SJ-11-01 4.3 20:48:15 23° SE 20:51:07 60° ENE 20:55:47 10° N
Cosmos 1842 Rocket 3.8 20:50:28 25° SSE 20:52:34 44° E 20:56:45 10° NNE
Lacrosse 5 rocket 1.1 20:48:54 10° NW 20:52:50 76° SW 20:54:09 38° SSE
Cosmos 389 Rocket 4.5 20:55:10 16° NE 20:55:10 16° NE 20:56:08 10° NNE
Cosmos 2061 Rocket 4.0 20:50:00 10° S 20:56:21 76° E 21:02:48 10° N
Cosmos 1626 4.4 20:54:07 10° NNE 20:54:52 13° NE 20:54:52 13° NE
Cosmos 494 Rocket 4.1 20:51:58 10° NNW 20:57:00 56° ENE 20:59:01 34° SE
Cosmos 2369 Rocket 3.7 21:01:46 18° ENE 21:01:46 18° ENE 21:03:40 10° NE
Timation 2 Rocket 4.4 20:54:42 10° NNW 21:00:54 61° WSW 21:06:20 13° S
Cosmos 1459 Rocket 3.9 20:54:46 10° S 21:01:01 88° ESE 21:07:14 10° N
Gblst 52 Del rocket 4.5 21:00:43 10° SSW 21:06:20 43° SE 21:07:37 37° ESE
Helios 1A 3.7 21:02:56 12° S 21:06:41 53° W 21:10:49 10° NNW
Cosmos 1184 Rocket 2.7 21:04:53 10° N 21:08:17 86° E 21:08:25 82° SE
Cosmos 2173 Rocket 4.0 21:03:09 10° S 21:09:20 82° W 21:15:40 10° N
USA 267 4.3 21:06:11 19° ENE 21:10:04 34° NNE 21:15:49 10° NW
Cosmos 1833 Rocket 3.8 21:05:55 10° NW 21:11:11 42° WSW 21:16:26 10° S
Envisat 3.0 21:08:43 21° S 21:12:11 80° WSW 21:17:18 10° NNW
Meteor 2-17 Rocket 4.3 21:11:19 10° S 21:17:28 84° E 21:23:38 10° N
Cosmos 1470 4.3 21:18:21 10° SW 21:22:01 36° WNW 21:25:44 10° N
ERS-1 Rocket 2.9 21:23:15 53° SE 21:24:23 74° ENE 21:29:26 10° N
ATLAS 5 CENTAUR R/B 2.8 21:20:25 10° WSW 21:24:59 46° NW 21:30:01 10° NNE
Cosmos 1356 Rocket 3.5 21:26:00 10° NNW 21:30:05 70° W 21:30:27 65° SW
H-2A R/B 3.4 21:31:01 26° NE 21:31:01 26° NE 21:34:39 10° N
CZ-3 Stage 3 3.9 21:09:00 10° W 21:34:54 40° SSW 21:37:49 31° SSE
BREEZE-M DEB (TANK) 4.1 21:37:06 10° WNW 21:38:17 29° NW 21:38:17 29° NW
Cosmos 2016 Rocket 4.3 21:35:25 10° SSW 21:41:35 64° W 21:47:42 10° N
CZ-4C R/B 4.5 21:48:37 12° NE 21:48:37 12° NE 21:48:57 10° NE
Cosmos 2221 4.0 21:45:55 27° NNE 21:45:55 27° NNE 21:48:01 10° NNE
ISS -1.6 21:43:32 10° W 21:45:27 26° WNW 21:45:27 26° WNW
MetOp-A 3.9 21:49:15 81° ESE 21:49:27 83° ENE 21:54:50 10° NNW
Cosmos 1725 Rocket 4.0 21:47:24 25° SSW 21:51:14 78° W 21:57:28 10° N
H-2A R/B 4.3 21:57:07 16° NNE 21:57:07 16° NNE 21:58:08 10° N
ARGOS 3.2 21:55:16 63° NE 21:55:16 63° NE 22:00:06 10° N
YAOGAN 6 4.3 21:58:47 34° WNW 21:58:47 34° WNW 22:01:23 10° NNW
MOS 1-B Rocket 4.5 22:01:31 59° ESE 22:02:24 63° ENE 22:09:08 10° N
Cosmos 2058 4.0 21:58:27 10° NNW 22:01:37 42° NW 22:01:37 42° NW
Cosmos 2346 Rocket 4.4 22:05:47 10° N 22:12:02 89° W 22:12:02 89° W
Tsikada Rocket 4.5 22:06:16 10° NNW 22:12:18 55° W 22:14:02 42° SW
SPOT 1/Viking Rocket 4.1 22:15:27 51° N 22:15:27 51° N 22:19:23 10° N
BREEZE-M DEB (TANK) 4.2 22:12:25 10° WSW 22:17:18 83° N 22:38:57 10° ENE
Lacrosse 5 4.3 22:16:10 10° NW 22:19:31 17° N 22:22:01 13° NNE
USA 215 3.2 22:13:11 10° NE 22:19:44 80° NW 22:26:15 10° WSW
SPOT 5 3.6 22:22:08 58° WNW 22:22:08 58° WNW 22:26:46 10° NNW
Terra 3.7 22:31:05 23° N 22:31:05 23° N 22:32:59 10° N
CZ-3B DEB 4.0 22:30:42 10° WNW 22:34:27 17° NNW 22:35:01 17° N
Cosmos 2369 Rocket 3.1 22:43:23 46° NW 22:43:23 46° NW 22:48:16 10° NNE
USA 267 3.5 22:53:31 64° NNW 22:53:31 64° NNW 22:59:03 10° NW
Cosmos 2227 Rocket 4.4 22:54:02 10° N 22:56:18 17° NNE 22:56:18 17° NNE
Cosmos 1943 Rocket 4.1 23:10:18 22° N 23:10:18 22° N 23:12:18 10° NNE
H-2A R/B 3.8 23:11:38 29° NW 23:11:38 29° NW 23:14:32 10° NNW
CZ-4C R/B 4.0 23:33:39 28° N 23:33:39 28° N 23:37:32 10° NNE
ATLAS 3B R/B 4.2 23:54:08 29° NNE 23:54:08 29° NNE 23:57:21 10° NNE
